Mineralnyye Vody Airport

Jump to: basic info | weather | frequencies | runways | comments

Related pages: nearby airports | nearby navaids | notams | map

Basic information (top)

Codes: MRV URMM
Location: lon 44.225101, lat 43.081902, elev 1,054 ft / 321 m msl
Status: medium_airport
Scheduled airline service: yes
Links: Wikipedia Mobile

Weather (top)

Current conditions (rec'd 2015/04/27 06:30Z):

URMM 270630Z 10006MPS 9999 NSC 17/05 Q1017 R12/000070 NOSIG RMK QFE735/0980

Airport forecast (rec'd 2015/04/27 06:24Z):

TAF URMM 270450Z 2706/2806 10007G12MPS 9999 SCT030 TX22/2712Z TN09/2803Z 
     FM271800 10003G08MPS 3000 BR BKN010 
      TEMPO 2721/2806 1200 BR BKN004

Frequencies (top)

Verify before use: may be inaccurate or out of date.

APP: 119.3 MHz (APP)
ATIS: 127.4 MHz (ATIS)
GND: 121.9 MHz (TAXIING)
RDR: 120.7 MHz (KRUG)
TWR: 128 MHz (START)

Runways (top)

12/30: 12,795 x 197 ft (3,900 x 60 m) — paved — lighted

Latest comments (top)

No comments yet for Mineralnyye Vody Airport

More... (top)

See also NOTAMs and nearby airports and navaids, or visit the Mineralnyye Vody Airport page at the main OurAirports website..